• In Hungary
  • List of Countries
  • For 7 days
  • Water Temperature
  • Satellite Maps
  • Weather Map
  • News
  • Weather Widgets
  • user-avatar
    Login

    Hourly Weather Safaga

    Today, 21 September, Friday

    Time Temperature Precipitation Wind Pressure Humidity
    00:00 +29°C° 0 mm 2 mps 702 mmHg 28%
    01:00 +29°C° 0 mm 2 mps 702 mmHg 28%
    02:00 +28°C° 0 mm 2 mps 702 mmHg 29%
    03:00 +28°C° 0 mm 2 mps 702 mmHg 30%
    04:00 +27°C° 0 mm 2 mps 702 mmHg 31%
    05:00 +27°C° 0 mm 2 mps 702 mmHg 32%
    06:00 +28°C° 0 mm 3 mps 702 mmHg 30%
    07:00 +30°C° 0 mm 3 mps 703 mmHg 27%
    08:00 +32°C° 0 mm 4 mps 703 mmHg 25%
    09:00 +34°C° 0 mm 4 mps 703 mmHg 22%
    10:00 +35°C° 0 mm 4 mps 704 mmHg 20%
    11:00 +37°C° 0 mm 4 mps 704 mmHg 17%
    12:00 +37°C° 0 mm 4 mps 704 mmHg 16%
    13:00 +38°C° 0 mm 4 mps 703 mmHg 16%
    14:00 +40°C° 0 mm 4 mps 703 mmHg 15%
    15:00 +38°C° 0 mm 4 mps 703 mmHg 16%
    16:00 +37°C° 0 mm 4 mps 703 mmHg 17%
    17:00 +37°C° 0 mm 3 mps 702 mmHg 18%
    18:00 +35°C° 0 mm 3 mps 703 mmHg 20%
    19:00 +34°C° 0 mm 2 mps 703 mmHg 22%
    20:00 +31°C° 0 mm 2 mps 703 mmHg 24%
    21:00 +31°C° 0 mm 2 mps 703 mmHg 24%
    22:00 +30°C° 0 mm 2 mps 703 mmHg 24%
    23:00 +30°C° 0 mm 2 mps 703 mmHg 24%

    Tomorrow, 22 September, Saturday

    Time Temperature Precipitation Wind Pressure Humidity
    00:00 +29°C° 0 mm 2 mps 703 mmHg 25%
    01:00 +29°C° 0 mm 2 mps 703 mmHg 25%
    02:00 +28°C° 0 mm 2 mps 703 mmHg 26%
    03:00 +28°C° 0 mm 2 mps 703 mmHg 27%
    04:00 +27°C° 0 mm 2 mps 703 mmHg 28%
    05:00 +27°C° 0 mm 2 mps 702 mmHg 29%
    06:00 +28°C° 0 mm 2 mps 703 mmHg 27%
    07:00 +29°C° 0 mm 2 mps 704 mmHg 26%
    08:00 +30°C° 0 mm 2 mps 704 mmHg 24%
    09:00 +32°C° 0 mm 2 mps 704 mmHg 21%
    10:00 +35°C° 0 mm 3 mps 705 mmHg 19%
    11:00 +37°C° 0 mm 3 mps 705 mmHg 16%
    12:00 +37°C° 0 mm 3 mps 704 mmHg 15%
    13:00 +38°C° 0 mm 3 mps 704 mmHg 14%
    14:00 +40°C° 0 mm 4 mps 704 mmHg 14%
    15:00 +38°C° 0 mm 4 mps 704 mmHg 15%
    16:00 +38°C° 0 mm 4 mps 703 mmHg 16%
    17:00 +37°C° 0 mm 4 mps 703 mmHg 17%
    18:00 +35°C° 0 mm 3 mps 703 mmHg 19%
    19:00 +34°C° 0 mm 2 mps 704 mmHg 22%
    20:00 +31°C° 0 mm 2 mps 704 mmHg 24%
    21:00 +31°C° 0 mm 2 mps 704 mmHg 25%
    22:00 +30°C° 0 mm 1 mps 704 mmHg 26%
    23:00 +29°C° 0 mm 1 mps 704 mmHg 26%

    Day after tomorrow, 23 September, Sunday

    Time Temperature Precipitation Wind Pressure Humidity
    00:00 +29°C° 0 mm 1 mps 704 mmHg 27%
    01:00 +29°C° 0 mm 2 mps 704 mmHg 27%
    02:00 +28°C° 0 mm 2 mps 703 mmHg 27%
    03:00 +28°C° 0 mm 2 mps 703 mmHg 28%
    04:00 +27°C° 0 mm 2 mps 703 mmHg 29%
    05:00 +27°C° 0 mm 2 mps 703 mmHg 29%
    06:00 +28°C° 0 mm 2 mps 703 mmHg 28%
    07:00 +30°C° 0 mm 2 mps 704 mmHg 26%
    08:00 +31°C° 0 mm 2 mps 705 mmHg 25%
    09:00 +32°C° 0 mm 2 mps 705 mmHg 22%
    10:00 +35°C° 0 mm 3 mps 705 mmHg 20%
    11:00 +37°C° 0 mm 3 mps 705 mmHg 18%
    12:00 +37°C° 0 mm 3 mps 705 mmHg 17%
    13:00 +38°C° 0 mm 3 mps 705 mmHg 16%
    14:00 +40°C° 0 mm 4 mps 704 mmHg 15%
    15:00 +38°C° 0 mm 3 mps 704 mmHg 16%
    16:00 +38°C° 0 mm 3 mps 704 mmHg 17%
    17:00 +37°C° 0 mm 3 mps 704 mmHg 18%
    18:00 +36°C° 0 mm 3 mps 704 mmHg 21%
    19:00 +34°C° 0 mm 2 mps 704 mmHg 23%
    20:00 +32°C° 0 mm 2 mps 704 mmHg 26%
    21:00 +31°C° 0 mm 2 mps 704 mmHg 26%
    22:00 +30°C° 0 mm 2 mps 704 mmHg 27%
    23:00 +30°C° 0 mm 1 mps 704 mmHg 27%

    24 September, Monday

    Time Temperature Precipitation Wind Pressure Humidity
    00:00 +29°C° 0 mm 2 mps 703 mmHg 28%
    01:00 +29°C° 0 mm 2 mps 703 mmHg 28%
    02:00 +28°C° 0 mm 2 mps 703 mmHg 29%
    03:00 +28°C° 0 mm 2 mps 703 mmHg 30%
    04:00 +27°C° 0 mm 2 mps 702 mmHg 32%
    05:00 +27°C° 0 mm 2 mps 702 mmHg 33%
    06:00 +28°C° 0 mm 2 mps 703 mmHg 32%
    07:00 +29°C° 0 mm 2 mps 703 mmHg 30%
    08:00 +31°C° 0 mm 2 mps 704 mmHg 28%
    09:00 +32°C° 0 mm 2 mps 704 mmHg 25%
    10:00 +35°C° 0 mm 2 mps 704 mmHg 22%
    11:00 +37°C° 0 mm 2 mps 704 mmHg 19%
    12:00 +38°C° 0 mm 3 mps 704 mmHg 17%
    13:00 +39°C° 0 mm 3 mps 703 mmHg 16%
    14:00 +40°C° 0 mm 3 mps 703 mmHg 15%
    15:00 +39°C° 0 mm 3 mps 703 mmHg 15%
    16:00 +38°C° 0 mm 3 mps 702 mmHg 16%
    17:00 +38°C° 0 mm 3 mps 702 mmHg 17%
    18:00 +36°C° 0 mm 3 mps 702 mmHg 20%
    19:00 +34°C° 0 mm 2 mps 703 mmHg 23%
    20:00 +32°C° 0 mm 2 mps 703 mmHg 25%
    21:00 +31°C° 0 mm 1 mps 703 mmHg 26%
    22:00 +30°C° 0 mm 1 mps 702 mmHg 27%
    23:00 +30°C° 0 mm 1 mps 702 mmHg 27%

    25 September, Tuesday

    Time Temperature Precipitation Wind Pressure Humidity
    00:00 +29°C° 0 mm 1 mps 702 mmHg 27%
    01:00 +29°C° 0 mm 1 mps 701 mmHg 27%
    02:00 +28°C° 0 mm 1 mps 701 mmHg 26%
    03:00 +28°C° 0 mm 1 mps 701 mmHg 27%
    04:00 +28°C° 0 mm 2 mps 701 mmHg 27%
    05:00 +27°C° 0 mm 2 mps 701 mmHg 27%
    06:00 +29°C° 0 mm 2 mps 702 mmHg 25%
    07:00 +31°C° 0 mm 2 mps 702 mmHg 23%
    08:00 +32°C° 0 mm 2 mps 703 mmHg 21%
    09:00 +35°C° 0 mm 2 mps 703 mmHg 19%
    10:00 +37°C° 0 mm 2 mps 703 mmHg 17%
    11:00 +38°C° 0 mm 3 mps 703 mmHg 15%
    12:00 +39°C° 0 mm 3 mps 703 mmHg 14%
    13:00 +41°C° 0 mm 4 mps 702 mmHg 14%
    14:00 +41°C° 0 mm 4 mps 702 mmHg 13%
    15:00 +41°C° 0 mm 4 mps 702 mmHg 14%
    16:00 +39°C° 0 mm 3 mps 702 mmHg 15%
    17:00 +38°C° 0 mm 3 mps 702 mmHg 16%
    18:00 +36°C° 0 mm 2 mps 702 mmHg 18%
    19:00 +35°C° 0 mm 2 mps 702 mmHg 21%
    20:00 +32°C° 0 mm 1 mps 702 mmHg 23%
    21:00 +31°C° 0 mm 1 mps 702 mmHg 23%
    22:00 +31°C° 0 mm 1 mps 702 mmHg 24%
    23:00 +30°C° 0 mm 1 mps 702 mmHg 25%

    26 September, Wednesday

    Time Temperature Precipitation Wind Pressure Humidity
    00:00 +30°C° 0 mm 1 mps 701 mmHg 25%
    01:00 +29°C° 0 mm 1 mps 701 mmHg 25%
    02:00 +29°C° 0 mm 2 mps 701 mmHg 25%
    03:00 +28°C° 0 mm 2 mps 701 mmHg 26%
    04:00 +28°C° 0 mm 2 mps 701 mmHg 26%
    05:00 +27°C° 0 mm 1 mps 701 mmHg 27%
    06:00 +29°C° 0 mm 1 mps 702 mmHg 25%
    07:00 +31°C° 0 mm 1 mps 702 mmHg 23%
    08:00 +32°C° 0 mm 1 mps 703 mmHg 21%
    09:00 +35°C° 0 mm 2 mps 703 mmHg 19%
    10:00 +36°C° 0 mm 2 mps 703 mmHg 17%
    11:00 +38°C° 0 mm 3 mps 703 mmHg 15%
    12:00 +38°C° 0 mm 3 mps 703 mmHg 14%
    13:00 +39°C° 0 mm 3 mps 702 mmHg 14%
    14:00 +41°C° 0 mm 4 mps 702 mmHg 13%
    15:00 +40°C° 0 mm 4 mps 702 mmHg 14%
    16:00 +38°C° 0 mm 3 mps 702 mmHg 15%
    17:00 +38°C° 0 mm 3 mps 702 mmHg 16%
    18:00 +36°C° 0 mm 3 mps 702 mmHg 18%
    19:00 +35°C° 0 mm 2 mps 702 mmHg 20%
    20:00 +34°C° 0 mm 2 mps 702 mmHg 22%
    21:00 +32°C° 0 mm 2 mps 702 mmHg 23%
    22:00 +31°C° 0 mm 1 mps 702 mmHg 24%
    23:00 +30°C° 0 mm 1 mps 702 mmHg 25%
    Show more